• en Belgique
  • Liste des pays
  • À 7 jours
  • Température de l'eau
  • Carte satellitaire
  • Carte météo
  • Widgets météo
  • user-avatar
    Se connecter

    Météo par heure à Annaba

    Ce jour, 25 Septembre, Lundi

    Heure Température Précipitation Vent Pression Humidité
    00:00 +21°C° 0 mm 2 m/s 763 mmHg 82%
    01:00 +20°C° 0 mm 2 m/s 763 mmHg 85%
    02:00 +20°C° 0 mm 2 m/s 763 mmHg 84%
    03:00 +20°C° 0 mm 2 m/s 763 mmHg 83%
    04:00 +20°C° 0 mm 2 m/s 762 mmHg 82%
    05:00 +20°C° 0 mm 2 m/s 762 mmHg 78%
    06:00 +20°C° 0 mm 2 m/s 762 mmHg 74%
    07:00 +20°C° 0 mm 2 m/s 762 mmHg 70%
    08:00 +23°C° 0 mm 1 m/s 762 mmHg 60%
    09:00 +26°C° 0 mm 1 m/s 762 mmHg 50%
    10:00 +28°C° 0 mm 1 m/s 762 mmHg 40%
    11:00 +29°C° 0 mm 1 m/s 762 mmHg 37%
    12:00 +30°C° 0 mm 2 m/s 762 mmHg 35%
    13:00 +31°C° 0 mm 2 m/s 762 mmHg 32%
    14:00 +31°C° 0 mm 3 m/s 762 mmHg 34%
    15:00 +30°C° 0 mm 3 m/s 762 mmHg 36%
    16:00 +30°C° 0 mm 3 m/s 761 mmHg 38%
    17:00 +29°C° 0 mm 2 m/s 761 mmHg 45%
    18:00 +27°C° 0 mm 2 m/s 761 mmHg 52%
    19:00 +25°C° 0 mm 2 m/s 761 mmHg 59%
    20:00 +25°C° 0 mm 2 m/s 762 mmHg 61%
    21:00 +24°C° 0 mm 1 m/s 762 mmHg 64%
    22:00 +23°C° 0 mm 1 m/s 762 mmHg 66%
    23:00 +23°C° 0 mm 1 m/s 762 mmHg 65%

    Demain, 26 Septembre, Mardi

    Heure Température Précipitation Vent Pression Humidité
    00:00 +23°C° 0 mm 1 m/s 762 mmHg 63%
    01:00 +23°C° 0 mm 2 m/s 762 mmHg 62%
    02:00 +23°C° 0 mm 2 m/s 761 mmHg 61%
    03:00 +23°C° 0 mm 1 m/s 761 mmHg 60%
    04:00 +22°C° 0 mm 1 m/s 761 mmHg 59%
    05:00 +23°C° 0 mm 1 m/s 761 mmHg 58%
    06:00 +23°C° 0 mm 1 m/s 761 mmHg 57%
    07:00 +23°C° 0 mm 1 m/s 761 mmHg 57%
    08:00 +25°C° 0 mm 1 m/s 761 mmHg 49%
    09:00 +28°C° 0 mm 1 m/s 761 mmHg 42%
    10:00 +30°C° 0 mm 1 m/s 761 mmHg 35%
    11:00 +31°C° 0 mm 1 m/s 761 mmHg 32%
    12:00 +32°C° 0 mm 1 m/s 761 mmHg 28%
    13:00 +34°C° 0 mm 2 m/s 761 mmHg 24%
    14:00 +33°C° 0 mm 3 m/s 760 mmHg 26%
    15:00 +33°C° 0 mm 3 m/s 760 mmHg 28%
    16:00 +33°C° 0 mm 4 m/s 760 mmHg 31%
    17:00 +30°C° 0 mm 3 m/s 760 mmHg 37%
    18:00 +28°C° 0 mm 2 m/s 760 mmHg 43%
    19:00 +26°C° 0 mm 2 m/s 760 mmHg 49%
    20:00 +26°C° 0 mm 1 m/s 761 mmHg 51%
    21:00 +25°C° 0 mm 1 m/s 761 mmHg 54%
    22:00 +22°C° 0 mm 0 m/s 762 mmHg 56%
    23:00 +24°C° 0 mm 1 m/s 762 mmHg 56%

    Après-demain, 27 Septembre, Mercredi

    Heure Température Précipitation Vent Pression Humidité
    00:00 +24°C° 0 mm 1 m/s 762 mmHg 56%
    01:00 +24°C° 0 mm 1 m/s 761 mmHg 55%
    02:00 +23°C° 0 mm 1 m/s 761 mmHg 56%
    03:00 +23°C° 0 mm 1 m/s 761 mmHg 56%
    04:00 +23°C° 0 mm 1 m/s 761 mmHg 56%
    05:00 +23°C° 0 mm 1 m/s 761 mmHg 58%
    06:00 +23°C° 0 mm 1 m/s 762 mmHg 59%
    07:00 +23°C° 0 mm 1 m/s 762 mmHg 61%
    08:00 +24°C° 0 mm 1 m/s 762 mmHg 57%
    09:00 +26°C° 0 mm 1 m/s 762 mmHg 54%
    10:00 +28°C° 0 mm 2 m/s 762 mmHg 50%
    11:00 +29°C° 0 mm 2 m/s 762 mmHg 48%
    12:00 +29°C° 0 mm 3 m/s 762 mmHg 46%
    13:00 +30°C° 0 mm 3 m/s 762 mmHg 44%
    14:00 +30°C° 0 mm 3 m/s 762 mmHg 47%
    15:00 +30°C° 0 mm 4 m/s 762 mmHg 50%
    16:00 +29°C° 0 mm 4 m/s 761 mmHg 54%
    17:00 +28°C° 0,1 mm 3 m/s 762 mmHg 60%
    18:00 +26°C° 0,1 mm 3 m/s 762 mmHg 67%
    19:00 +25°C° 0,1 mm 2 m/s 762 mmHg 74%
    20:00 +24°C° 0 mm 1 m/s 763 mmHg 76%
    21:00 +24°C° 0 mm 1 m/s 763 mmHg 78%
    22:00 +21°C° 0 mm 0 m/s 764 mmHg 80%
    23:00 +21°C° 0 mm 0 m/s 764 mmHg 80%

    28 Septembre, Jeudi

    Heure Température Précipitation Vent Pression Humidité
    00:00 +21°C° 0 mm 0 m/s 764 mmHg 81%
    01:00 +21°C° 0 mm 0 m/s 764 mmHg 81%
    02:00 +20°C° 0 mm 0 m/s 764 mmHg 83%
    03:00 +20°C° 0 mm 0 m/s 763 mmHg 84%
    04:00 +20°C° 0 mm 0 m/s 763 mmHg 86%
    05:00 +20°C° 0 mm 0 m/s 763 mmHg 85%
    06:00 +20°C° 0 mm 0 m/s 764 mmHg 85%
    07:00 +20°C° 0 mm 0 m/s 764 mmHg 85%
    08:00 +23°C° 0 mm 1 m/s 764 mmHg 76%
    09:00 +25°C° 0 mm 1 m/s 764 mmHg 67%
    10:00 +27°C° 0 mm 1 m/s 765 mmHg 59%
    11:00 +27°C° 0 mm 2 m/s 764 mmHg 56%
    12:00 +28°C° 0 mm 2 m/s 764 mmHg 53%
    13:00 +29°C° 0 mm 3 m/s 764 mmHg 50%
    14:00 +29°C° 0 mm 3 m/s 764 mmHg 51%
    15:00 +28°C° 0 mm 3 m/s 763 mmHg 52%
    16:00 +28°C° 0 mm 4 m/s 763 mmHg 53%
    17:00 +27°C° 0 mm 3 m/s 763 mmHg 59%
    18:00 +25°C° 0 mm 3 m/s 764 mmHg 65%
    19:00 +24°C° 0 mm 2 m/s 764 mmHg 72%
    20:00 +24°C° 0 mm 2 m/s 764 mmHg 76%
    21:00 +23°C° 0 mm 2 m/s 764 mmHg 79%
    22:00 +22°C° 0 mm 1 m/s 765 mmHg 83%
    23:00 +22°C° 0 mm 1 m/s 765 mmHg 85%

    29 Septembre, Vendredi

    Heure Température Précipitation Vent Pression Humidité
    00:00 +22°C° 0 mm 1 m/s 764 mmHg 86%
    01:00 +21°C° 0 mm 1 m/s 764 mmHg 87%
    02:00 +21°C° 0 mm 1 m/s 764 mmHg 88%
    03:00 +21°C° 0 mm 1 m/s 764 mmHg 88%
    04:00 +21°C° 0 mm 1 m/s 763 mmHg 89%
    05:00 +21°C° 0 mm 1 m/s 764 mmHg 88%
    06:00 +21°C° 0 mm 1 m/s 764 mmHg 88%
    07:00 +21°C° 0 mm 1 m/s 764 mmHg 87%
    08:00 +23°C° 0 mm 1 m/s 764 mmHg 76%
    09:00 +25°C° 0 mm 1 m/s 764 mmHg 66%
    10:00 +27°C° 0 mm 1 m/s 764 mmHg 56%
    11:00 +28°C° 0 mm 1 m/s 763 mmHg 51%
    12:00 +28°C° 0 mm 2 m/s 763 mmHg 46%
    13:00 +29°C° 0 mm 3 m/s 763 mmHg 42%
    14:00 +29°C° 0 mm 3 m/s 762 mmHg 43%
    15:00 +29°C° 0 mm 4 m/s 762 mmHg 44%
    16:00 +29°C° 0 mm 4 m/s 762 mmHg 45%
    17:00 +27°C° 0 mm 3 m/s 762 mmHg 52%
    18:00 +26°C° 0 mm 3 m/s 762 mmHg 59%
    19:00 +24°C° 0 mm 2 m/s 762 mmHg 66%
    20:00 +24°C° 0 mm 2 m/s 763 mmHg 70%
    21:00 +23°C° 0 mm 2 m/s 763 mmHg 74%
    22:00 +22°C° 0 mm 1 m/s 763 mmHg 77%
    23:00 +22°C° 0 mm 1 m/s 763 mmHg 79%

    30 Septembre, Samedi

    Heure Température Précipitation Vent Pression Humidité
    00:00 +22°C° 0 mm 1 m/s 763 mmHg 80%
    01:00 +19°C° 0 mm 0 m/s 763 mmHg 82%
    02:00 +19°C° 0 mm 0 m/s 762 mmHg 83%
    03:00 +21°C° 0 mm 1 m/s 762 mmHg 84%
    04:00 +21°C° 0 mm 1 m/s 762 mmHg 85%
    05:00 +21°C° 0 mm 1 m/s 762 mmHg 85%
    06:00 +21°C° 0 mm 1 m/s 762 mmHg 84%
    07:00 +21°C° 0 mm 1 m/s 762 mmHg 84%
    08:00 +23°C° 0 mm 1 m/s 762 mmHg 74%
    09:00 +24°C° 0 mm 1 m/s 763 mmHg 64%
    10:00 +26°C° 0 mm 1 m/s 763 mmHg 54%
    11:00 +27°C° 0 mm 2 m/s 762 mmHg 50%
    12:00 +28°C° 0 mm 3 m/s 762 mmHg 47%
    13:00 +29°C° 0 mm 3 m/s 762 mmHg 43%
    14:00 +28°C° 0 mm 3 m/s 762 mmHg 46%
    15:00 +28°C° 0 mm 4 m/s 761 mmHg 50%
    16:00 +28°C° 0 mm 4 m/s 761 mmHg 53%
    17:00 +26°C° 0 mm 3 m/s 761 mmHg 59%
    18:00 +25°C° 0 mm 2 m/s 761 mmHg 66%
    19:00 +24°C° 0 mm 1 m/s 762 mmHg 72%
    20:00 +23°C° 0 mm 1 m/s 762 mmHg 74%
    21:00 +23°C° 0 mm 1 m/s 762 mmHg 77%
    22:00 +20°C° 0 mm 0 m/s 762 mmHg 79%
    23:00 +20°C° 0 mm 0 m/s 762 mmHg 80%
    Voir plus